Hourly Data Report for October 07, 2015

All times are specified in Local Standard Time (LST). Add 1 hour to adjust for Daylight Saving Time where and when it is observed.

KAMLOOPS A
BRITISH COLUMBIA

50°42'09.000" N
120°26'55.000" W
345.30 m
1163781
71887
YKA

Download Data

Hourly Data (October 2015)
Hourly Data Report for October 7, 2015
Temp Definition
°C
Dew Point Temp Definition
°C
Rel Hum Definition
%
Wind Dir Definition
10's deg

Wind Spd Definition
km/h
Visibility Definition
km
Stn Press Definition
kPa
Hmdx Definition


Wind Chill Definition


Weather Definition


TIME
00:00 Legend Double Dagger 8.4 7.7 95 1 4 64.4 97.54     LegendNANA
01:00 Legend Double Dagger 7.8 7.2 96 36 2 64.4 97.57     Mainly Clear
02:00 Legend Double Dagger 7.7 7.0 95 36 1 64.4 97.61     LegendNANA
03:00 Legend Double Dagger 7.2 6.5 95 9 7 64.4 97.64     LegendNANA
04:00 Legend Double Dagger 7.8 6.8 93 36 5 64.4 97.66     Cloudy
05:00 Legend Double Dagger 6.8 6.1 95 9 6 64.4 97.69     LegendNANA
06:00 Legend Double Dagger 6.9 6.0 94 7 7 48.3 97.70     LegendNANA
07:00 Legend Double Dagger 7.7 6.8 94 36 2 64.4 97.75     Mostly Cloudy
08:00 Legend Double Dagger 9.1 7.9 92 11 3 64.4 97.78     LegendNANA
09:00 Legend Double Dagger 10.7 7.8 82 9 7 64.4 97.80     LegendNANA
10:00 Legend Double Dagger 12.0 8.5 79 10 10 64.4 97.77     Mostly Cloudy
11:00 Legend Double Dagger 14.1 8.6 69 7 7 64.4 97.73     LegendNANA
12:00 Legend Double Dagger 14.8 8.8 67 7 3 64.4 97.71     LegendNANA
13:00 Legend Double Dagger 16.3 9.1 62 36 1 64.4 97.66     Cloudy
14:00 Legend Double Dagger 16.7 9.5 62 20 4 64.4 97.62     LegendNANA
15:00 Legend Double Dagger 17.7 8.9 56 8 4 64.4 97.63     LegendNANA
16:00 Legend Double Dagger 17.3 9.3 59 9 15 64.4 97.62     Cloudy
17:00 Legend Double Dagger 17.0 8.8 58 12 17 64.4 97.64     LegendNANA
18:00 Legend Double Dagger 16.5 9.3 62 10 19 64.4 97.73     LegendNANA
19:00 Legend Double Dagger 14.7 10.4 75 7 10 48.3 97.81     Rain Showers
20:00 Legend Double Dagger 14.0 10.8 81 8 8 48.3 97.87     Rain Showers
21:00 Legend Double Dagger 12.5 11.4 93 24 4 64.4 97.92     LegendNANA
22:00 Legend Double Dagger 13.0 11.4 90 36 3 40.2 98.00     Rain Showers
23:00 Legend Double Dagger 12.3 11.5 95 36 8 48.3 97.99     LegendNANA

Notes on Data Quality.

Legend

  • E = Estimated
  • M = Missing
  • NA = Not Available
  • ‡ = Partner data that is not subject to review by the National Climate Archives
Date modified: